Location: Harwich
(41.7160°N, 69.9939°W)
Time: 23:38:22
(UTC+01:00)

Hubble Space Telescope - Pass Details

Date: 09 December 2022
Orbit: 529 x 532 km, 28.5° (Epoch: 31 January)

Event Time Altitude Azimuth Distance (km) Brightness Sun altitude
Rises 12:16:41 0° 236° (SW) 2,652 4.0 -7.2°
Reaches altitude 10° 12:20:04 10° 206° (SSW) 1,761 3.4 -6.7°
Maximum altitude 12:21:51 13° 180° (S) 1,601 3.5 -6.4°
Drops below altitude 10° 12:23:38 10° 154° (SSE) 1,760 4.3 -6.1°
Sets 12:27:01 0° 125° (SE) 2,648 6.7 -5.5°
